Content
SEND FEEDBACK

Daily
Averages
Monthly
Summary
United States of America

DAHLONEGA, GEORGIA


Home > North America > United States > Georgia
Elevation: 1414 feet     Latitude: 34 32N     Longitude: 083 59W

WEATHER
 
SELECT A DAY
Number of Records: 204,159;   Date Range: 7/1/96 - 8/12/14
 
SHARE

PRINT THIS DATA

[ ← Previous Day ]
WEATHER ALMANAC - JANUARY 23, 2013
[ Next Day → ]
[ °C ]   °F
Weather ElementAverageHighLow
Temperature38.2 °F48 °F (3:53 pm)28 °F (4:53 am)
Dewpoint19.9 °F32 °F (11:34 pm)10 °F (1:53 am)
Humidity48.1 %61 % (11:34 pm)37 % (3:53 pm)
Barometer30.28 in30.36 in (9:53 am)30.16 in (11:34 pm)
Wind Speed7.1 mph15 mph (1:53 pm)
Wind Gust25.3 mph (1:53 pm)
Weather ElementAverage
Visibility10 mi
Wind DirectionWSW (247.7 °)

Weather ElementTotal
Precipitation---
Heating Degree Days27 (Base 65)
Averaged from 22 records on January 23, 2013
WEATHER CONDITIONS BREAKOUT
WIND DIRECTION BREAKOUT
WEATHER BY HOUR - JANUARY 23, 2013
[ °C ]   °F
Local TimeTemperatureDewpointHumidityBarometerVisibilityWind DirectionWind SpeedGust SpeedPrecipitationEventsConditions
1:53 AM30.0 °F10.0 °F43 %30.31 in10.0 miWest (270°)8.1 mphPartly Cloudy
2:53 AM28.9 °F10.9 °F47 %30.31 in10.0 miWest (260°)8.1 mphClear
3:53 AM28.9 °F12.0 °F49 %30.31 in10.0 miWest (270°)4.6 mphClear
4:53 AM28.0 °F12.0 °F51 %30.31 in10.0 miWest (280°)3.5 mphClear
5:53 AM28.0 °F12.9 °F53 %30.32 in10.0 miWest (280°)3.5 mphClear
6:53 AM28.0 °F15.1 °F58 %30.33 in10.0 miWest (260°)4.6 mphOvercast
7:53 AM28.0 °F12.9 °F53 %30.35 in10.0 miCalmMostly Cloudy
8:53 AM30.9 °F16.0 °F54 %30.35 in10.0 miWest (280°)3.5 mphClear
9:53 AM35.1 °F16.0 °F46 %30.36 in10.0 miWSW (250°)6.9 mphClear
10:53 AM39.0 °F17.1 °F41 %30.36 in10.0 miWNW (290°)9.2 mphClear
11:53 AM43.0 °F19.9 °F40 %30.34 in10.0 miWest (280°)9.2 mph17.3 mphClear
12:53 PM45.0 °F21.0 °F39 %30.30 in10.0 miWest (260°)13.8 mph19.6 mphMostly Cloudy
1:53 PM46.0 °F25.0 °F44 %30.27 in10.0 miWNW (290°)15.0 mph25.3 mphClear
2:53 PM46.9 °F25.0 °F42 %30.25 in10.0 miWNW (290°)13.8 mph21.9 mphClear
3:53 PM48.0 °F23.0 °F37 %30.24 in10.0 miWest (280°)10.4 mphClear
4:53 PM46.9 °F24.1 °F41 %30.22 in10.0 miWSW (240°)10.4 mphClear
5:53 PM46.0 °F25.0 °F44 %30.22 in10.0 miWest (270°)6.9 mphClear
6:53 PM42.1 °F25.0 °F51 %30.22 in10.0 miWest (260°)5.8 mphClear
7:53 PM43.0 °F26.1 °F51 %30.20 in10.0 miWNW (290°)3.5 mphClear
8:53 PM41.0 °F26.1 °F55 %30.21 in10.0 miCalmClear
10:53 PM44.1 °F30.0 °F58 %30.17 in10.0 miWest (280°)6.9 mphOvercast
11:34 PM44.6 °F32.0 °F61 %30.16 in10.0 miWest (270°)9.2 mphOvercast
Hourly data recorded from KGVL, located miles away from Dahlonega, Georgia







STORIES FROM OUR PARTNERS